Simultaneous Nadir Overpasses (SNOs) Predictions

Prediction of SNOs between GOES-15 and METOP-B Satellite Orbit:

Table of predicted SNOs for the next 14.0 days since TLE Epoch: 12/15/2017
Index Date Time (GOES-15) GOES-15 Lat,Lon METOP-B Lat,Lon Distance(km) Time Diff (sec)
1 12/16/2017 06:33:37 0.11,-135.43 0.09,-135.54 12.69 80
2 12/18/2017 18:31:49 -0.11,-135.37 -0.16,-135.10 29.98 80
3 12/20/2017 06:50:51 0.09,-135.41 -0.85,-139.71 489.28 80
4 12/21/2017 06:27:31 0.10,-135.40 0.25,-134.71 78.34 80
5 12/22/2017 18:46:22 -0.08,-135.33 0.78,-139.27 448.84 80
6 12/23/2017 18:28:23 -0.09,-135.31 -0.32,-134.27 118.92 80
7 12/25/2017 06:47:23 0.07,-135.35 -0.74,-138.86 400.91 80
8 12/26/2017 06:24:05 0.08,-135.33 0.42,-133.88 166.08 80
9 12/27/2017 18:42:55 -0.07,-135.25 0.66,-138.42 362.69 80
10 12/28/2017 18:24:57 -0.08,-135.23 -0.50,-133.44 204.22 80




NCC Satellite Simultaneous Nadir Overpasses (SNOs) Prediction Service
